Location: PSU-Greenbush Astrophysical Observatory
(37.5140°N, 94.9880°W)
Time: 00:40:40
(UTC-06:00)

Transit 2A - Pass Details

Date: 26 January 2020
Orbit: 599 x 959 km, 66.7° (Epoch: 27 February)

Event Time Altitude Azimuth Distance (km) Brightness Sun altitude
Rises 03:16:51 0° 353° (N) 2,984 - -49.6°
Reaches altitude 10° 03:21:14 10° 32° (NNE) 2,156 - -48.8°
Maximum altitude 03:22:20 11° 46° (NE) 2,133 - -48.6°
Drops below altitude 10° 03:23:28 10° 59° (ENE) 2,204 - -48.4°
Exits shadow 03:25:57 - 82° (E) 2,637 9.4 -47.9°
Sets 03:28:10 0° 97° (E) 3,236 9.9 -47.5°
